Regional Weather Roundup
Issued by NWS New Orleans/Baton Rouge, LA

Home | Current Version | Previous Version | Text Only | Print | Product List | Glossary On
Versions: 1 2 3 4 5 6 7 8 9 10 11 12 13 14 15 16 17 18 19 20 21 22 23 24 25 26 27 28 29 30 31 32 33 34 35 36 37 38 39 40 41 42 43 44 45 46 47 48 49 50
068
ASUS44 KLIX 302305
RWRLIX
NEW ORLEANS REGIONAL WEATHER ROUNDUP
NATIONAL WEATHER SERVICE NEW ORLEANS LA
600 PM CDT THU OCT 30 2014

NOTE: "FAIR" INDICATES FEW OR NO CLOUDS BELOW 12,000 FEET WITH NO
      SIGNIFICANT WEATHER AND/OR OBSTRUCTIONS TO VISIBILITY.
      SKY/WX - SKY CONDITION AND SIGNIFICANT WEATHER.
      TMP - AIR TEMPERATURE.     DP    - DEWPOINT TEMPERATURE.
      RH  - RELATIVE HUMIDITY.   PRES  - PRESSURE.
      HI  - HEAT INDEX.          WCI   - WIND CHILL INDEX.

*  THESE STATIONS ARE NOT NWS OR FAA STATIONS AND ARE NOT UNDER
   NWS QUALITY CONTROL.

LAZ038-040-048-061>063-065>067-069-310000-
SOUTHEAST LOUISIANA

CITY           SKY/WX    TMP DP  RH WIND       PRES   REMARKS
N.O. AUDUBON     N/A     72 N/A N/A MISG        N/A
N.O. INTL ARPT PTCLDY    67  43  41 NW7       30.03S
N.O. LAKEFRONT CLEAR     71  43  36 NW5       30.03S
N.O. DOWNTOWN*   N/A     72  39  30 N5        30.03S
SLIDELL        CLEAR     68  44  42 CALM      30.02S
BATON ROUGE    CLEAR     70  44  39 CALM      30.05R
BOOTHVILLE     CLEAR     69  51  52 CALM      30.03R
BELLE CHASSE   CLEAR     67  45  45 CALM      30.02S
BOGALUSA*        N/A     70  38  31 N3        30.05R
NEW ROADS*       N/A     69  46  44 NW5       30.05S
GONZALES*        N/A     67  50  54 N3        30.04R
HAMMOND*       CLEAR     70  41  35 CALM      30.05S
HOUMA*         CLEAR     70  45  40 N5        30.03R
PORT FOURCHON* CLEAR     72  46  40 NE7       30.06R

$$

MSZ070-080>082-310000-
SOUTHERN MISSISSIPPI

CITY           SKY/WX    TMP DP  RH WIND       PRES   REMARKS
MCCOMB         CLEAR     71  40  32 CALM      30.04S
GULFPORT       CLEAR     70  39  32 N5        30.01R
BILOXI         CLEAR     69  40  34 N6        30.01R
PASCAGOULA     CLEAR     65  40  39 N3        30.01R
STENNIS ARPT*  CLEAR     64  45  48 CALM      30.02R

$$

COASTAL OBSERVATIONS
LAKE AND NEARSHORE STATIONS

STATION/POSITION TIME  TEMP    WIND        PRES    WAVE
                       AIR SEA DIR/SP/G            HT/PER
                 (UTC) (F)     (DEG/KT/KT) (MB)    (FT/S)
PASCAGOULA       2300   70     360/  6/ 10 1015.7
WAVELAND YACHT   2300   72      10/  7/  9 1015.7
GRAND ISLE       2300   70 76   40/  6/ 12 1017.3
SOUTHWEST PASS   2300   75 78              1016.8
NEW CANAL        2300   71 71  290/  1/  2 1017.1
SHELL BEACH      2300   72 69   CALM  /  2 1016.5

OFFSHORE STATIONS

STATION/POSITION TIME  TEMP    WIND        PRES    WAVE
                       AIR SEA DIR/SP/G            HT/PER
                 (UTC) (F)     (DEG/KT/KT) (MB)    (FT/S)
64 S DAUPHIN ISL 2226   69 78   10/ 12/ 14 1016.3    4/ 6

$$




USA.gov is the U.S. government's official web portal to all federal, state and local government web resources and services.